Inquirer Daily News

Weather

Get conditions and forecasts for any City, State, ZIP code or Country:  
Trenton, NJ
on Tuesday, December 11, 2012

Tuesday
Previous Day Next Day
Daily Summary
 ActualAverageRecord
Temperature
Mean Temperature °F 37°F  
Max Temperature 58°F 44°F 65°F (1911)
Min Temperature 36°F 29°F 9°F (1880)
Degree Days
Heating Degree Days 18 28  
Month to date heating degree days 213 292  
Since 1 July heating degree days 1220 1268  
Cooling Degree Days 0 0  
Month to date cooling degree days 0 0  
Year to date cooling degree days 1234 965  
Moisture
Dew Point 37°F   
Average Humidity 73    
Maximum Humidity 93    
Minimum Humidity 53    
Precipitation
Precipitation 0.05 in 0.14 in 2.05 in (2008)
Month to date precipitation 0.83 1.50  
Year to date precipitation 34.06 44.24  
Wind
Wind Speed 7 mph   
Max Wind Speed 21 mph   
Max Gust Speed 26 mph   
Visibility 9 miles   
Events Rain   

Key: T is trace of precipitation, MM is missing value
Source: NWS Daily Summary
Time(EST)TemperatureDew PointHumidity Pressure Visibility Wind DirectionWind SpeedGust SpeedPrecipitationEvents Conditions
12:17 AM 57.2°F 55.4°F 94% 29.59 in 4.0 miles WNW 4.6 mph - N/A   Mostly Cloudy
12:24 AM 57.2°F 55.4°F 94% 29.59 in 4.0 miles West 4.6 mph - N/A   Mostly Cloudy
12:39 AM 57.2°F 55.4°F 94% 29.59 in 4.0 miles NNW 9.2 mph - N/A   Overcast
12:53 AM 55.0°F 52.0°F 89% 29.59 in 5.0 miles North 13.8 mph 20.7 mph 0.00 in Rain Light Rain
1:53 AM 46.0°F 39.9°F 79% 29.65 in 10.0 miles NNE 11.5 mph 21.9 mph 0.00 in   Overcast
2:53 AM 45.0°F 39.9°F 82% 29.70 in 10.0 miles NNE 9.2 mph - 0.00 in   Overcast
3:53 AM 45.0°F 39.0°F 80% 29.70 in 10.0 miles North 4.6 mph - N/A   Overcast
4:53 AM 45.0°F 37.9°F 76% 29.73 in 10.0 miles North 8.1 mph - N/A   Overcast
5:53 AM 43.0°F 39.9°F 89% 29.81 in 8.0 miles NW 4.6 mph - 0.05 in Rain Light Rain
6:53 AM 43.0°F 39.9°F 89% 29.83 in 10.0 miles NNW 3.5 mph - 0.00 in Rain Light Rain
7:53 AM 43.0°F 39.0°F 86% 29.85 in 10.0 miles NNW 6.9 mph - 0.00 in   Overcast
8:53 AM 43.0°F 37.0°F 80% 29.88 in 10.0 miles North 8.1 mph - N/A   Scattered Clouds
9:53 AM 45.0°F 36.0°F 71% 29.90 in 10.0 miles North 6.9 mph - N/A   Mostly Cloudy
10:53 AM 46.0°F 36.0°F 68% 29.93 in 10.0 miles NNW 8.1 mph - N/A   Overcast
11:53 AM 46.9°F 35.1°F 63% 29.92 in 10.0 miles Variable 6.9 mph - N/A   Overcast
12:53 PM 46.9°F 30.9°F 54% 29.94 in 10.0 miles NW 12.7 mph - N/A   Overcast
1:53 PM 46.9°F 32.0°F 56% 29.94 in 10.0 miles NNW 6.9 mph - N/A   Mostly Cloudy
2:53 PM 48.9°F 33.1°F 54% 29.97 in 10.0 miles NNW 6.9 mph - N/A   Overcast
3:53 PM 46.9°F 30.9°F 54% 29.99 in 10.0 miles Variable 3.5 mph - N/A   Mostly Cloudy
4:53 PM 46.0°F 30.0°F 54% 30.03 in 10.0 miles NW 5.8 mph - N/A   Overcast
5:53 PM 45.0°F 28.0°F 52% 30.06 in 10.0 miles NNW 5.8 mph - N/A   Partly Cloudy
6:53 PM 43.0°F 28.9°F 58% 30.10 in 10.0 miles NNW 5.8 mph - N/A   Scattered Clouds
7:53 PM 42.1°F 28.9°F 60% 30.12 in 10.0 miles NNW 4.6 mph - N/A   Mostly Cloudy
8:53 PM 41.0°F 27.0°F 57% 30.14 in 10.0 miles NNW 4.6 mph - N/A   Partly Cloudy
9:53 PM 39.0°F 26.1°F 60% 30.17 in 10.0 miles NNW 4.6 mph - N/A   Clear
10:53 PM 37.9°F 26.1°F 62% 30.17 in 10.0 miles NNW 3.5 mph - N/A   Clear
11:53 PM 37.0°F 27.0°F 67% 30.19 in 10.0 miles Calm Calm - N/A   Clear
Astronomy
Sunrise:07:12 AM (EST) Moon Rise:05:04 AM (EST)12/11
Sunset:04:33 PM (EST) Moon Set:03:10 PM (EST)12/11
Moon Phase
Dec. 11 Dec. 13 Dec. 20 Dec. 28 Jan. 04

Copyright © 2014 The Weather Underground, Inc.